Regional Weather Roundup
Issued by NWS Newport/Morehead, NC

Home | Current Version | Previous Version | Text Only | Print | Product List | Glossary On
Versions: 1 2 3 4 5 6 7 8 9 10 11 12 13 14 15 16 17 18 19 20 21 22 23 24 25 26 27 28 29 30 31 32 33 34 35 36 37 38 39 40 41 42 43 44 45 46 47 48 49 50
000
ASUS42 KMHX 011822
RWRMHX
WEATHER ROUNDUP FOR EASTERN NORTH CAROLINA
NATIONAL WEATHER SERVICE NEWPORT/MOREHEAD CITY NC
100 PM EST SUN FEB 01 2015

NOTE: "FAIR" INDICATES FEW OR NO CLOUDS BELOW 12,000 FEET
WITH NO SIGNIFICANT WEATHER AND/OR OBSTRUCTIONS TO VISIBILITY

NCZ015>017-031-032-045>047-102-103-011900-
NORTH COAST

CITY           SKY/WX    TMP DP  RH WIND       PRES   REMARKS
EDENTON        PTSUNNY   48  22  35 CALM      30.23F
ELIZABETH CITY MOSUNNY   42  21  43 E5        30.24F
KITTY HAWK     PTCLDY    46  22  38 CALM      30.22F
MANTEO         MOSUNNY   45  27  49 NE3       30.23F

$$

NCZ045>047-081-094-103-104-011900-
CENTRAL COAST

CITY           SKY/WX    TMP DP  RH WIND       PRES   REMARKS
FRISCO         PTSUNNY   50  30  46 SW6       30.24F
SWANQUARTER      N/A     50 N/A N/A S5        30.21S

$$

NCZ095-097-098-100-101-011900-
SOUTHERN COAST

CITY           SKY/WX    TMP DP  RH WIND       PRES   REMARKS
BEAUFORT       CLOUDY    53  34  48 W9        30.26F
CEDAR ISLAND     N/A     55 N/A N/A SW10      30.27F
JACKSONVILLE   CLOUDY    54  23  30 VRB6      30.24F
PINEY ISLAND     N/A    N/A N/A N/A MISG      30.25F
WILMINGTON     SUNNY     60  29  30 S14G21    30.24F


$$

NCZ011>013-027>030-043-044-078>080-089-090>093-098-011900-
COASTAL PLAIN

CITY           SKY/WX    TMP DP  RH WIND       PRES   REMARKS
AHOSKIE        PTSUNNY   49  22  34 SE7       30.22F
CLINTON        PTSUNNY   55  25  31 S6        30.22F
ELIZABETHTOWN  MOSUNNY   59  26  28 S10G17    30.19F
GOLDSBORO      MOSUNNY   52  24  33 S6        30.19F
GREENVILLE     PTSUNNY   55  23  28 SW9       30.22F
HAVELOCK       PTSUNNY   55  20  25 SW12      30.26F
KENANSVILLE    PTSUNNY   53  20  28 SE5       30.23F
KINSTON        PTSUNNY   54  21  28 SW10      30.24F
NEW BERN       PTSUNNY   57  19  22 SW12G17   30.26F
RICHLANDS      CLOUDY    54  23  30 S10       30.23F
ROCKY MOUNT    MOSUNNY   54  23  30 S8        30.20F
WASHINGTON     PTSUNNY   55  21  27 W8        30.23F
WHITEVILLE     MOSUNNY   60  35  38 S9        30.21F

$$

AMZ130-135-150-152-154-156-158-170-250-252-270-ANZ085-086-088-633-658-670-011900-
MARINE OBSERVATIONS

STATION/POSITION TIME  TEMP    WIND        PRES    WAVE   SWELL
                       AIR SEA DIR/SP/G            HT/PER HT/PER
                 (UTC) (F)     (DEG/KT/KT) (MB)    (FT/S) (FT/S)
CHESAPEAKE LIGHT 1800   41     130/  9/ 10 1024.3
64 E VA BEACH    1800   45 47  120/  4/  6 1023.9    3/ 7   3/ 7
DUCK             1800   42 40   80/  2/  3 1023.0
2 E DUCK         1800      41                N/A     2/ 7   2/12
10 NE DUCK       1800      43                N/A     2/ 7
OREGON INLET     1800   43 36   80/  6/  8 1023.5
13E OREGON INLT  1800      43                N/A     3/11   2/11
HATTERAS CG      1800   47 48  270/  4/  5 1024.2
DIAMOND BUOY     1800   54 71  240/ 12/ 16 1024.3    5/11   5/11
17 S OCRACOKE    NOT AVBL
CAPE LOOKOUT     1800   51     260/  7/  9 1024.3
BEAUFORT LAB     1800   52 45  260/  4/  9 1023.4
27 SE WRIGHTSVLE NOT AVBL
5 SE WRIGHTSVLE  1800   53 52  210/  6/  6 1024.4
225 S CAPE HAT   1746   60 71  200/  2/  8 1026.7    7/11   7/11
41 SE CHARLESTON 1800   63 71  170/ 12/ 14 1023.7    4/10   3/10

$$



USA.gov is the U.S. government's official web portal to all federal, state and local government web resources and services.